Location: Biharia
(46.4333°N, 22.8000°E)
Time: 18:31:43
(UTC+00:00)

CSL-04 Rocket - Pass Details

Date: 02 June 2022
Orbit: 807 x 859 km, 98.9° (Epoch: 27 June)

Event Time Altitude Azimuth Distance (km) Brightness Sun altitude
Rises 19:52:33 0° 225° (SW) 3,338 6.7 -12.9°
Reaches altitude 10° 19:57:20 10° 264° (W) 2,428 6.5 -13.4°
Maximum altitude 19:58:20 11° 275° (W) 2,398 6.6 -13.5°
Drops below altitude 10° 19:59:22 10° 286° (WNW) 2,438 6.9 -13.6°
Sets 20:04:15 0° 325° (NW) 3,397 8.9 -14.1°
